This demonstration page uses our WeatherBlox Daily Observations layout. Learn more.

39.01783, -85.05884

Hourly Observations for May 23, 2020

Temp ( °F °C ) Dew Point ( °F °C ) Humidity (%) Winds ( mph kmh ) Pressure ( in mb ) Visibility ( mi km ) Precip ( " mm )
12:52 am 00:52 Partly Cloudy 65 18.3 58 14.4 78 78 ESE 7 11 29.98 1015 10 16.0934 0 0
1:52 am 01:52 Cloudy 66 18.9 60 15.6 81 81 SE 8 13 29.98 1015 10 16.0934 0 0
2:52 am 02:52 Mostly Cloudy 65 18.3 60 15.6 84 84 SE 6 9 29.96 1015 10 16.0934 0 0
3:52 am 03:52 Partly Cloudy 64 17.8 59 15 84 84 E 3 6 29.95 1014 10 16.0934 0 0
4:52 am 04:52 Cloudy 64 17.8 60 15.6 87 87 E 3 6 29.96 1014 10 16.0934 0 0
5:52 am 05:52 Cloudy 64 17.8 60 15.6 87 87 SE 3 6 29.97 1015 10 16.0934 0 0
6:52 am 06:52 Partly Cloudy 62 16.7 59 15 90 90 SE 5 7 29.97 1015 10 16.0934 0 0
7:52 am 07:52 Mostly Cloudy 65 18.3 61 16.1 87 87 ESE 3 6 29.98 1015 10 16.0934 0 0
8:52 am 08:52 Mostly Cloudy 68 20 62 16.7 81 81 SSE 5 7 30 1016 10 16.0934 0 0
9:52 am 09:52 Mostly Cloudy 72 22.2 64 17.8 76 76 SE 5 7 30.02 1017 10 16.0934 0 0
10:52 am 10:52 Partly Cloudy 75 23.9 64 17.8 69 69 VRB 6 9 30.02 1017 10 16.0934 0 0
11:52 am 11:52 Mostly Cloudy 77 25 65 18.3 66 66 SSE 7 11 30.02 1017 10 16.0934 0 0
12:52 pm 12:52 Mostly Cloudy 77 25 64 17.8 64 64 SW 9 15 30.01 1016 10 16.0934 0 0
1:52 pm 13:52 Mostly Cloudy 80 26.7 65 18.3 60 60 SSE 8 13 29.98 1015 10 16.0934 0 0
2:52 pm 14:52 Mostly Cloudy 79 26.1 65 18.3 62 62 SSE 8 13 29.97 1015 10 16.0934 0 0
3:52 pm 15:52 Partly Cloudy 82 27.8 64 17.8 55 55 VRB 7 11 29.95 1014 10 16.0934 0 0
4:42 pm 16:42 Cloudy with Nearby Thunderstorms 78 25.6 64 17.8 62 62 SSE 10 17 29.93 1014 10 16.0934 0 0
4:52 pm 16:52 Mostly Cloudy with Nearby Thunderstorms 79 26.1 65 18.3 62 62 SSW 6 9 29.94 1014 10 16.0934 0 0
4:57 pm 16:57 Mostly Cloudy 79 26.1 64 17.8 60 60 SSW 5 7 29.93 1013 10 16.0934 0 0
5:27 pm 17:27 Cloudy with Nearby Thunderstorms 76 24.4 66 18.9 72 72 ENE 8 13 29.94 1014 10 16.0934 0 0
5:52 pm 17:52 Cloudy with Nearby Thunderstorms 76 24.4 66 18.9 72 72 ENE 8 13 29.95 1014 10 16.0934 0 0
5:57 pm 17:57 Cloudy 75 23.9 66 18.9 74 74 ENE 7 11 29.95 1014 10 16.0934 0 0
6:52 pm 18:52 Cloudy 73 22.8 65 18.3 76 76 NNE 14 22 29.96 1015 10 16.0934 0 0
7:52 pm 19:52 Cloudy 72 22.2 65 18.3 79 79 E 12 19 29.96 1015 10 16.0934 0 0
7:58 pm 19:58 Cloudy with Nearby Thunderstorms 72 22.2 65 18.3 79 79 E 6 9 29.97 1015 10 16.0934 0 0
8:03 pm 20:03 Cloudy with Thunderstorms 72 22.2 65 18.3 79 79 ESE 5 7 29.97 1015 10 16.0934 0 0
8:52 pm 20:52 Cloudy with Thunderstorms 68 20 63 17.2 84 84 SE 5 7 30.01 1016 5 8.0467 0.03 0.762
9:00 pm 21:00 Cloudy with Heavy Thunderstorms 68 20 64 17.8 87 87 S 9 15 30.01 1016 2.5 4.02335 0.01 0.254
9:08 pm 21:08 Cloudy with Thunderstorms 67 19.4 64 17.8 91 91 S 7 11 30.01 1016 3 4.82802 0.05 1.27
9:36 pm 21:36 Cloudy with Heavy Rain 69 20.6 65 18.3 87 87 E 8 13 29.99 1015 4 6.43736 0.13 3.302
9:52 pm 21:52 Mostly Cloudy with Light Rain 69 20.6 65 18.3 87 87 SE 8 13 29.98 1015 9 14.48406 0.18 4.572
10:52 pm 22:52 Mostly Cloudy 69 20.6 65 18.3 87 87 SSE 10 17 29.96 1015 10 16.0934 0.01 0.254
11:52 pm 23:52 Cloudy with Light Rain 69 20.6 65 18.3 87 87 S 13 20 29.97 1015 10 16.0934 0.001 0.001

Powered by AerisWeather